EW3027 Weather Reports


Display with metric or nautical units.
time (UTC)temp
F
wind
direction
speed
MPH
gust
MPH
rain 1hr
in
rain 24hr
in
rain mn
in
humidity
%
barometer
mb
20260905233217 70 0.0 0.0 0.00 0.17 0.00 53 1014.3
20260905232217 70 0.0 0.0 0.00 0.18 0.00 56 1014.5
20260905231217 69 0.0 0.0 0.00 0.18 0.00 55 1014.6
20260905230217 68 0.0 0.0 0.00 0.19 0.00 57 1014.7
20260905225217 67 0.0 0.0 0.00 0.22 0.00 60 1014.7
20260905224216 67 0.0 0.0 0.00 0.23 0.00 60 1014.8
20260905223216 68 0.0 0.0 0.00 0.25 0.00 61 1014.9
20260905222216 67 0.0 0.0 0.00 0.26 0.00 62 1015.0
20260905221216 67 0.0 0.0 0.00 0.28 0.00 61 1015.0
20260905220216 68 0.0 0.0 0.00 0.29 0.00 61 1015.0
20260905215216 67 0.0 0.0 0.00 0.30 0.00 65 1015.0
20260905214217 66 0.0 0.0 0.00 0.32 0.00 64 1015.1
20260905213216 66 0.0 0.0 0.00 0.34 0.00 68 1015.2
20260905212217 65 0.0 0.0 0.00 0.35 0.00 70 1015.3
20260905211216 64 0.0 0.0 0.00 0.36 0.00 73 1015.4
20260905210216 63 0.0 0.0 0.00 0.36 0.00 78 1015.4
20260905205216 62 0.0 0.0 0.00 0.36 0.00 81 1015.6
20260905204217 61 0.0 0.0 0.00 0.36 0.00 87 1015.6
20260905203216 61 0.0 0.0 0.00 0.36 0.00 88 1015.6
20260905202216 60 0.0 0.0 0.00 0.36 0.00 91 1015.6
20260905201217 59 0.0 0.0 0.00 0.36 0.00 92 1015.6
20260905200236 59 0.0 0.0 0.00 0.36 0.00 95 1015.7
20260905195217 58 0.0 0.0 0.00 0.36 0.00 97 1015.8
20260905194237 59 0.0 0.0 0.00 0.36 0.00 98 1016.0
20260905193216 58 0.0 0.0 0.00 0.36 0.00 98 1016.2
20260905192216 57 0.0 0.0 0.00 0.36 0.00 98 1016.1
20260905191216 57 0.0 0.0 0.00 0.36 0.00 98 1016.2
20260905190217 57 0.0 0.0 0.00 0.36 0.00 98 1016.2
20260905185216 57 0 1.0 1.0 0.00 0.36 0.00 98 1016.3
20260905184216 57 0.0 1.0 0.00 0.36 0.00 98 1016.3
20260905183216 57 0.0 1.0 0.00 0.36 0.00 98 1016.3
20260905182216 56 0.0 1.0 0.00 0.36 0.00 98 1016.3
20260905181216 56 0.0 1.0 0.00 0.36 0.00 98 1016.3
20260905180216 56 0.0 0.0 0.00 0.36 0.00 98 1016.4
20260905175216 56 0.0 0.0 0.00 0.37 0.00 98 1016.4
20260905174216 56 0.0 0.0 0.00 0.38 0.00 98 1016.6
20260905173216 56 0.0 0.0 0.00 0.38 0.00 98 1016.6
20260905172216 55 0.0 0.0 0.00 0.38 0.00 98 1016.6
20260905171216 55 0.0 0.0 0.00 0.38 0.00 98 1016.6
20260905170236 55 0.0 0.0 0.00 0.39 0.00 98 1016.5
20260905165216 54 0.0 0.0 0.00 0.40 0.00 98 1016.5
20260905164216 54 0.0 0.0 0.00 0.41 0.00 98 1016.4
20260905163216 54 0.0 0.0 0.00 0.42 0.00 98 1016.4
20260905162216 54 0.0 0.0 0.00 0.42 0.00 98 1016.3
20260905161216 53 0.0 0.0 0.00 0.42 0.00 98 1016.4
20260905160217 53 0.0 1.0 0.00 0.42 0.00 98 1016.5
20260905155236 53 0.0 0.0 0.00 0.42 0.00 98 1016.5
20260905154216 52 0.0 0.0 0.00 0.42 0.00 98 1016.6
20260905153236 52 0.0 0.0 0.00 0.42 0.00 98 1016.8
20260905152216 52 0.0 0.0 0.00 0.42 0.00 98 1016.8
20260905151236 51 0.0 0.0 0.00 0.42 0.00 98 1016.8
20260905150236 51 0.0 0.0 0.00 0.42 0.00 98 1016.8
20260905145216 51 0.0 0.0 0.00 0.42 0.00 98 1016.8
20260905144216 51 0.0 0.0 0.00 0.42 0.00 98 1016.8
20260905143216 51 0.0 0.0 0.00 0.42 0.00 98 1016.7
20260905142216 51 0.0 0.0 0.00 0.42 0.00 98 1016.6
20260905141216 51 0.0 0.0 0.00 0.42 0.00 98 1016.6
20260905140216 51 0.0 0.0 0.00 0.42 0.00 98 1016.5
20260905135216 51 0.0 0.0 0.00 0.42 0.00 98 1016.4
20260905134216 51 0.0 0.0 0.00 0.42 0.00 98 1016.3
20260905133216 51 0.0 0.0 0.00 0.42 0.00 98 1016.4
20260905132216 51 0.0 0.0 0.00 0.43 0.00 98 1016.4
20260905131236 51 0.0 0.0 0.00 0.43 0.00 98 1016.3
20260905130216 52 0.0 0.0 0.00 0.43 0.00 98 1016.2
20260905125216 52 0.0 0.0 0.00 0.43 0.00 98 1016.1
20260905124216 52 0.0 0.0 0.00 0.43 0.00 98 1016.0
20260905123216 52 0.0 0.0 0.00 0.43 0.00 98 1016.0
20260905122236 52 0.0 0.0 0.00 0.43 0.00 98 1016.0
20260905121216 53 0.0 0.0 0.00 0.43 0.00 98 1016.0
20260905120236 53 0.0 0.0 0.00 0.43 0.00 98 1016.1
20260905115218 53 0.0 0.0 0.00 0.43 0.00 98 1016.1
20260905114218 53 0.0 0.0 0.00 0.43 0.00 98 1016.1
20260905113218 53 0.0 0.0 0.00 0.43 0.00 98 1016.0
20260905112218 53 0.0 0.0 0.00 0.43 0.00 98 1016.0
20260905111218 53 0.0 0.0 0.00 0.43 0.00 98 1016.0
20260905110217 53 0.0 0.0 0.00 0.43 0.00 98 1015.9
20260905105218 53 0.0 0.0 0.00 0.43 0.00 98 1015.9
20260905104217 53 0.0 0.0 0.00 0.43 0.00 98 1016.0
20260905103218 53 0.0 0.0 0.00 0.43 0.00 98 1016.0
20260905102218 53 0.0 0.0 0.00 0.44 0.00 98 1016.0
20260905101217 53 0.0 0.0 0.00 0.44 0.00 98 1016.0
20260905100218 53 0.0 0.0 0.00 0.45 0.00 98 1016.0
20260905095217 53 0.0 0.0 0.00 0.45 0.00 98 1016.1
20260905094218 54 0.0 0.0 0.00 0.45 0.00 98 1016.0
20260905093217 53 0.0 0.0 0.00 0.45 0.00 98 1016.0
20260905092258 53 0.0 0.0 0.00 0.45 0.00 98 1016.1
20260905091217 53 0.0 0.0 0.00 0.45 0.00 98 1016.1
20260905090217 53 0.0 0.0 0.00 0.45 0.00 98 1015.9
20260905085217 53 0.0 0.0 0.00 0.46 0.00 98 1015.9
20260905084217 53 0.0 0.0 0.00 0.48 0.00 98 1015.9
20260905083217 53 0.0 0.0 0.00 0.48 0.00 98 1015.8
20260905082218 53 0.0 0.0 0.00 0.49 0.00 98 1015.7
20260905081218 53 0.0 0.0 0.00 0.49 0.00 98 1015.7
20260905080217 54 0.0 0.0 0.00 0.50 0.00 98 1015.6
20260905075218 54 0.0 0.0 0.00 0.50 0.00 98 1015.7
20260905074238 54 0.0 0.0 0.00 0.52 0.00 98 1015.7
20260905073238 54 0.0 0.0 0.00 0.54 0.00 98 1015.5
20260905072217 54 0.0 0.0 0.01 0.55 0.00 98 1015.5
20260905071217 54 0.0 0.0 0.01 0.55 0.00 98 1015.4
20260905070217 54 0.0 0.0 0.01 0.55 0.00 98 1015.4
20260905065237 54 0.0 0.0 0.01 0.55 0.55 98 1015.4
20260905064237 55 0.0 0.0 0.01 0.55 0.55 98 1015.3
20260905063217 55 0.0 0.0 0.01 0.55 0.55 98 1015.3
20260905062217 55 0.0 0.0 0.00 0.54 0.54 98 1015.3
20260905061217 55 0.0 0.0 0.00 0.54 0.54 98 1015.3
20260905060217 55 0.0 0.0 0.00 0.54 0.54 98 1015.3
20260905055217 55 0.0 0.0 0.00 0.54 0.54 98 1015.3
20260905054217 55 0.0 0.0 0.00 0.54 0.54 98 1015.3
20260905053217 55 0.0 0.0 0.00 0.55 0.54 98 1015.3
20260905052237 55 0.0 0.0 0.00 0.55 0.54 98 1015.4
20260905051217 55 0.0 0.0 0.00 0.55 0.54 98 1015.3
20260905050217 55 0.0 0.0 0.00 0.55 0.54 98 1015.3
20260905045217 55 0.0 0.0 0.00 0.55 0.54 98 1015.2
20260905044237 55 0.0 0.0 0.00 0.55 0.54 98 1015.2
20260905043216 55 0.0 0.0 0.00 0.55 0.54 98 1015.1
20260905042216 55 0.0 0.0 0.00 0.55 0.54 97 1015.1
20260905041217 55 0.0 0.0 0.01 0.55 0.54 97 1015.0
20260905040237 55 0.0 0.0 0.03 0.55 0.54 97 1014.8
20260905035216 55 0.0 0.0 0.05 0.55 0.54 97 1014.8
20260905034217 56 0.0 0.0 0.07 0.56 0.54 97 1014.7
20260905033217 56 0.0 0.0 0.07 0.56 0.54 97 1014.6
20260905032237 56 0.0 0.0 0.07 0.56 0.54 98 1014.4
20260905031216 56 0.0 0.0 0.06 0.55 0.53 97 1014.3
20260905030236 56 0.0 0.0 0.04 0.53 0.51 98 1014.3
20260905025216 56 0.0 0.0 0.02 0.51 0.49 98 1014.3
20260905024217 57 0.0 0.0 0.00 0.49 0.47 98 1014.3
20260905023217 57 0.0 0.0 0.00 0.49 0.47 98 1014.1
20260905022236 57 0.0 0.0 0.01 0.49 0.47 98 1014.0
20260905021217 57 0.0 0.0 0.01 0.49 0.47 98 1014.1
20260905020216 57 0.0 0.0 0.01 0.49 0.47 97 1014.0
20260905015216 57 0.0 0.0 0.02 0.49 0.47 98 1013.9
20260905014217 57 0.0 0.0 0.03 0.49 0.47 98 1013.8
20260905013217 57 0.0 0.0 0.03 0.50 0.47 97 1013.8
20260905012217 57 0.0 0.0 0.03 0.49 0.46 97 1013.7
20260905011216 56 0.0 0.0 0.04 0.49 0.46 97 1013.7
20260905010216 56 0.0 0.0 0.05 0.50 0.46 97 1013.5
20260905005216 56 0.0 0.0 0.06 0.51 0.45 97 1013.5
20260905004217 56 0.0 0.0 0.06 0.50 0.44 97 1013.5
20260905003216 56 0.0 0.0 0.06 0.50 0.44 97 1013.3
20260905002216 56 0.0 0.0 0.06 0.49 0.43 97 1013.2
20260905001217 56 0.0 0.0 0.05 0.48 0.42 97 1013.1
20260905000218 56 0.0 0.0 0.05 0.47 0.40 97 1013.1
20260904235216 57 0.0 0.0 0.06 0.45 0.39 97 1013.0
20260904234217 56 0.0 0.0 0.06 0.44 0.38 97 1013.0